Tracking 18980 objects as of 22-Feb-2018
HD Live streaming from Space Station
objects crossing your sky now

FLOCK 3P 61

Track FLOCK 3P 61 now!
10-day predictions
FLOCK 3P 61 is classified as:


NORAD ID: 42009
Int'l Code: 2017-008BP
Perigee: 494.7 km
Apogee: 507.5 km
Inclination: 97.5 °
Period: 94.5 minutes
Semi major axis: 6872 km
RCS: Unknown
Launch date: February 15, 2017
Source: United States (US)
Launch site: SRIHARIKOTA (SRI)
aabbcc
Your satellite tracking list
Your tracking list is empty




NASA's NSSDC Master Catalog

Two Line Element Set (TLE):
1 42009U 17008BP  18051.84035320 +.00001131 +00000-0 +49706-4 0  9997
2 42009 097.4648 117.4148 0009362 069.7768 290.4475 15.23947796056368
Source of the keplerian elements: AFSPC